Time,TemperatureF,DewpointF,PressureIn,WindDirection,WindDirectionDegrees,WindSpeedMPH,WindSpeedGustMPH,Humidity,HourlyPrecipIn,Conditions,Clouds,dailyrainin,SoftwareType,DateUTC
2013-11-18 00:13:00,11.7,11.2,29.95,NE,45,0.0,-999.0,98,-99.99,,,0.00,Acu-Link.com,2013-11-18 07:13:00,
2013-11-18 00:28:00,10.9,10.4,29.94,NE,45,0.0,-999.0,98,-99.99,,,0.00,Acu-Link.com,2013-11-18 07:28:00,
2013-11-18 00:43:00,11.8,11.3,29.95,NE,45,3.2,-999.0,98,-99.99,,,0.00,Acu-Link.com,2013-11-18 07:43:00,
2013-11-18 00:58:00,11.7,11.2,29.96,East,90,0.0,-999.0,98,-99.99,,,0.00,Acu-Link.com,2013-11-18 07:58:00,
2013-11-18 01:14:00,10.9,10.4,29.96,SSW,202,0.0,-999.0,98,-99.99,,,0.00,Acu-Link.com,2013-11-18 08:14:00,
2013-11-18 01:29:00,10.4,9.9,29.96,East,90,4.2,-999.0,98,-99.99,,,0.00,Acu-Link.com,2013-11-18 08:29:00,
2013-11-18 01:44:00,10.2,9.7,29.97,NE,45,0.0,-999.0,98,-99.99,,,0.00,Acu-Link.com,2013-11-18 08:44:00,
2013-11-18 01:59:00,11.3,10.8,29.97,SW,225,0.0,-999.0,98,-99.99,,,0.00,Acu-Link.com,2013-11-18 08:59:00,
2013-11-18 02:15:00,9.7,9.3,29.98,West,270,0.0,-999.0,98,-99.99,,,0.00,Acu-Link.com,2013-11-18 09:15:00,
2013-11-18 02:30:00,8.6,7.7,29.98,NE,45,0.0,-999.0,96,-99.99,,,0.00,Acu-Link.com,2013-11-18 09:30:00,
2013-11-18 02:45:00,9.5,9.1,29.98,East,90,2.2,-999.0,98,-99.99,,,0.00,Acu-Link.com,2013-11-18 09:45:00,
2013-11-18 03:00:00,9.3,8.9,29.98,ENE,67,2.7,-999.0,98,-99.99,,,0.00,Acu-Link.com,2013-11-18 10:00:00,
2013-11-18 03:16:00,8.1,7.2,29.98,NNE,22,0.0,-999.0,96,-99.99,,,0.00,Acu-Link.com,2013-11-18 10:16:00,
2013-11-18 03:31:00,7.3,6.2,29.99,NW,315,0.0,-999.0,95,-99.99,,,0.00,Acu-Link.com,2013-11-18 10:31:00,
2013-11-18 03:47:00,7.2,6.8,29.99,ENE,67,0.0,-999.0,98,-99.99,,,0.00,Acu-Link.com,2013-11-18 10:47:00,
2013-11-18 04:02:00,7.0,6.3,29.99,East,90,0.0,-999.0,97,-99.99,,,0.00,Acu-Link.com,2013-11-18 11:02:00,
2013-11-18 04:18:00,6.4,5.5,30.00,NE,45,1.7,-999.0,96,-99.99,,,0.00,Acu-Link.com,2013-11-18 11:18:00,
2013-11-18 04:33:00,6.8,6.4,30.01,East,90,0.0,-999.0,98,-99.99,,,0.00,Acu-Link.com,2013-11-18 11:33:00,
2013-11-18 04:48:00,5.9,5.0,30.01,WNW,292,0.0,-999.0,96,-99.99,,,0.00,Acu-Link.com,2013-11-18 11:48:00,
2013-11-18 05:04:00,5.0,2.7,30.03,SSW,202,0.0,-999.0,90,-99.99,,,0.00,Acu-Link.com,2013-11-18 12:04:00,
2013-11-18 05:19:00,4.5,2.2,30.03,SW,225,0.0,-999.0,90,-99.99,,,0.00,Acu-Link.com,2013-11-18 12:19:00,
2013-11-18 05:34:00,4.3,2.0,30.03,NE,45,0.0,-999.0,90,-99.99,,,0.00,Acu-Link.com,2013-11-18 12:34:00,
2013-11-18 05:50:00,3.6,1.8,30.04,NNW,337,0.0,-999.0,92,-99.99,,,0.00,Acu-Link.com,2013-11-18 12:50:00,
2013-11-18 06:05:00,3.4,1.4,30.04,NNE,22,0.0,-999.0,91,-99.99,,,0.00,Acu-Link.com,2013-11-18 13:05:00,
2013-11-18 06:21:00,4.5,3.8,30.05,NE,45,1.1,-999.0,97,-99.99,,,0.00,Acu-Link.com,2013-11-18 13:21:00,
2013-11-18 06:36:00,4.5,3.2,30.06,East,90,2.2,-999.0,94,-99.99,,,0.00,Acu-Link.com,2013-11-18 13:36:00,
2013-11-18 06:51:00,3.4,1.4,30.07,NE,45,0.0,-999.0,91,-99.99,,,0.00,Acu-Link.com,2013-11-18 13:51:00,
2013-11-18 07:07:00,3.4,1.4,30.07,WNW,292,0.0,-999.0,91,-99.99,,,0.00,Acu-Link.com,2013-11-18 14:07:00,
2013-11-18 07:22:00,3.4,1.1,30.08,SSW,202,0.0,-999.0,90,-99.99,,,0.00,Acu-Link.com,2013-11-18 14:22:00,
2013-11-18 07:37:00,8.2,7.8,30.08,East,90,0.0,-999.0,98,-99.99,,,0.00,Acu-Link.com,2013-11-18 14:37:00,
2013-11-18 07:52:00,10.6,10.1,30.09,East,90,1.7,-999.0,98,-99.99,,,0.00,Acu-Link.com,2013-11-18 14:52:00,
2013-11-18 08:08:00,11.7,11.2,30.09,NE,45,3.2,-999.0,98,-99.99,,,0.00,Acu-Link.com,2013-11-18 15:08:00,
2013-11-18 08:23:00,12.9,12.0,30.09,NE,45,4.2,-999.0,96,-99.99,,,0.00,Acu-Link.com,2013-11-18 15:23:00,
2013-11-18 08:39:00,15.6,13.7,30.09,East,90,2.7,-999.0,92,-99.99,,,0.00,Acu-Link.com,2013-11-18 15:39:00,
2013-11-18 08:54:00,17.8,15.1,30.09,SSE,157,0.0,-999.0,89,-99.99,,,0.00,Acu-Link.com,2013-11-18 15:54:00,
2013-11-18 09:09:00,21.0,16.1,30.09,SSE,157,2.2,-999.0,81,-99.99,,,0.00,Acu-Link.com,2013-11-18 16:09:00,
2013-11-18 09:24:00,21.9,17.0,30.09,South,180,0.0,-999.0,81,-99.99,,,0.00,Acu-Link.com,2013-11-18 16:24:00,
2013-11-18 09:40:00,23.7,17.6,30.09,South,180,1.1,-999.0,77,-99.99,,,0.00,Acu-Link.com,2013-11-18 16:40:00,
2013-11-18 09:55:00,24.1,17.7,30.08,ESE,112,2.2,-999.0,76,-99.99,,,0.00,Acu-Link.com,2013-11-18 16:55:00,
2013-11-18 10:10:00,24.8,18.3,30.08,ESE,112,2.7,-999.0,76,-99.99,,,0.00,Acu-Link.com,2013-11-18 17:10:00,
2013-11-18 10:25:00,27.0,19.5,30.07,ESE,112,0.0,-999.0,73,-99.99,,,0.00,Acu-Link.com,2013-11-18 17:25:00,
2013-11-18 10:41:00,28.6,20.1,30.06,South,180,2.2,-999.0,70,-99.99,,,0.00,Acu-Link.com,2013-11-18 17:41:00,
2013-11-18 10:56:00,28.6,20.4,30.05,East,90,2.7,-999.0,71,-99.99,,,0.00,Acu-Link.com,2013-11-18 17:56:00,
2013-11-18 11:11:00,28.9,20.7,30.04,ESE,112,2.7,-999.0,71,-99.99,,,0.00,Acu-Link.com,2013-11-18 18:11:00,
2013-11-18 11:27:00,30.7,22.1,30.04,ESE,112,3.2,-999.0,70,-99.99,,,0.00,Acu-Link.com,2013-11-18 18:27:00,
2013-11-18 11:42:00,30.9,21.6,30.02,NE,45,2.7,-999.0,68,-99.99,,,0.00,Acu-Link.com,2013-11-18 18:42:00,
2013-11-18 11:57:00,31.6,22.6,30.02,ENE,67,3.2,-999.0,69,-99.99,,,0.00,Acu-Link.com,2013-11-18 18:57:00,
2013-11-18 12:12:00,32.9,22.8,30.01,East,90,3.7,-999.0,66,-99.99,,,0.00,Acu-Link.com,2013-11-18 19:12:00,
2013-11-18 12:27:00,33.3,24.2,30.00,East,90,4.2,-999.0,69,-99.99,,,0.00,Acu-Link.com,2013-11-18 19:27:00,
2013-11-18 12:43:00,33.6,23.8,29.99,East,90,3.7,-999.0,67,-99.99,,,0.00,Acu-Link.com,2013-11-18 19:43:00,
2013-11-18 12:58:00,33.8,23.7,29.98,East,90,2.7,-999.0,66,-99.99,,,0.00,Acu-Link.com,2013-11-18 19:58:00,
2013-11-18 13:13:00,35.4,24.1,29.96,NNW,337,1.1,-999.0,63,-99.99,,,0.00,Acu-Link.com,2013-11-18 20:13:00,
2013-11-18 13:28:00,35.4,24.5,29.95,NE,45,3.7,-999.0,64,-99.99,,,0.00,Acu-Link.com,2013-11-18 20:28:00,
2013-11-18 13:44:00,35.4,24.5,29.94,West,270,2.7,-999.0,64,-99.99,,,0.00,Acu-Link.com,2013-11-18 20:44:00,
2013-11-18 13:59:00,36.0,25.4,29.94,NNW,337,4.2,-999.0,65,-99.99,,,0.00,Acu-Link.com,2013-11-18 20:59:00,
2013-11-18 14:14:00,36.3,25.7,29.94,NNE,22,3.2,-999.0,65,-99.99,,,0.00,Acu-Link.com,2013-11-18 21:14:00,
2013-11-18 14:30:00,35.8,25.6,29.93,East,90,2.7,-999.0,66,-99.99,,,0.00,Acu-Link.com,2013-11-18 21:30:00,
2013-11-18 14:45:00,36.7,26.8,29.92,East,90,4.2,-999.0,67,-99.99,,,0.00,Acu-Link.com,2013-11-18 21:45:00,
2013-11-18 15:00:00,35.4,25.9,29.91,ESE,112,2.7,-999.0,68,-99.99,,,0.00,Acu-Link.com,2013-11-18 22:00:00,
2013-11-18 15:15:00,35.1,26.0,29.91,NE,45,0.0,-999.0,69,-99.99,,,0.00,Acu-Link.com,2013-11-18 22:15:00,
2013-11-18 15:30:00,35.4,25.6,29.91,NE,45,2.7,-999.0,67,-99.99,,,0.00,Acu-Link.com,2013-11-18 22:30:00,
2013-11-18 15:45:00,35.1,25.6,29.91,NNW,337,3.2,-999.0,68,-99.99,,,0.00,Acu-Link.com,2013-11-18 22:45:00,
2013-11-18 16:01:00,34.5,25.4,29.91,North,0,2.2,-999.0,69,-99.99,,,0.00,Acu-Link.com,2013-11-18 23:01:00,
2013-11-18 16:16:00,33.6,24.9,29.90,NW,315,1.7,-999.0,70,-99.99,,,0.00,Acu-Link.com,2013-11-18 23:16:00,
2013-11-18 16:31:00,32.2,24.2,29.90,NNW,337,3.2,-999.0,72,-99.99,,,0.00,Acu-Link.com,2013-11-18 23:31:00,
2013-11-18 16:46:00,31.1,23.8,29.90,NNW,337,4.2,-999.0,74,-99.99,,,0.00,Acu-Link.com,2013-11-18 23:46:00,
2013-11-18 17:01:00,29.8,23.5,29.90,NW,315,0.0,-999.0,77,-99.99,,,0.00,Acu-Link.com,2013-11-19 00:01:00,
2013-11-18 17:17:00,27.9,22.2,29.92,SE,135,0.0,-999.0,79,-99.99,,,0.00,Acu-Link.com,2013-11-19 00:17:00,
2013-11-18 17:32:00,25.9,21.2,29.91,NNE,22,0.0,-999.0,82,-99.99,,,0.00,Acu-Link.com,2013-11-19 00:32:00,
2013-11-18 17:48:00,25.0,22.0,29.91,NNW,337,2.2,-999.0,88,-99.99,,,0.00,Acu-Link.com,2013-11-19 00:48:00,
2013-11-18 18:03:00,24.6,21.0,29.91,West,270,0.0,-999.0,86,-99.99,,,0.00,Acu-Link.com,2013-11-19 01:03:00,
2013-11-18 18:19:00,22.5,19.0,29.91,ESE,112,0.0,-999.0,86,-99.99,,,0.00,Acu-Link.com,2013-11-19 01:19:00,
2013-11-18 18:34:00,21.0,18.3,29.91,NNW,337,1.7,-999.0,89,-99.99,,,0.00,Acu-Link.com,2013-11-19 01:34:00,
2013-11-18 18:51:00,19.8,17.4,29.92,ENE,67,1.7,-999.0,90,-99.99,,,0.00,Acu-Link.com,2013-11-19 01:51:00,
2013-11-18 19:09:00,18.3,17.6,29.92,NE,45,3.2,-999.0,97,-99.99,,,0.00,Acu-Link.com,2013-11-19 02:09:00,
2013-11-18 19:24:00,17.6,17.1,29.92,NNE,22,0.0,-999.0,98,-99.99,,,0.00,Acu-Link.com,2013-11-19 02:24:00,
2013-11-18 19:39:00,16.5,16.0,29.93,East,90,0.0,-999.0,98,-99.99,,,0.00,Acu-Link.com,2013-11-19 02:39:00,
2013-11-18 19:55:00,15.8,15.3,29.93,ENE,67,0.0,-999.0,98,-99.99,,,0.00,Acu-Link.com,2013-11-19 02:55:00,
2013-11-18 20:10:00,16.7,16.2,29.96,NE,45,3.2,-999.0,98,-99.99,,,0.00,Acu-Link.com,2013-11-19 03:10:00,
2013-11-18 20:25:00,15.6,15.1,29.94,NE,45,1.7,-999.0,98,-99.99,,,0.00,Acu-Link.com,2013-11-19 03:25:00,